Flag for Switzerland Weather past 2 weeks in Monthey, Valais, Switzerland

Now
67 °F

Mild.


Feels Like: 67 °F
Forecast: 59 / 84 °F
Wind: 1 mph from Southwest

Location: Aigle

Current Time: Aug 1, 2015 at 2:15:01 PM

Latest Report: Aug 1, 2015 at 1:00 PM


Visibility: N/A

Pressure: 29.96 "Hg

Humidity: 78%

Dew point: 60 °F

Location of MontheyLocation

Historic Weather in Monthey — Graph

°F

Monthey temperature yesterday

Maximum temperature yesterday: 76 °F (at 4:00 PM)
Minimum temperature yesterday: 49 °F (at 7:00 AM)
Average temperature yesterday: 63 °F

Past Weeks' High & Low Weather Summary

 TemperatureHumidityPressure
High94 °F (Jul 21, 4:00 PM)98% (Jul 24, 5:00 AM)30.21 "Hg (Jul 24, 5:00 AM)
Low49 °F (Jul 31, 7:00 AM)28% (Jul 20, 6:00 PM)29.71 "Hg (Jul 24, 4:00 PM)
Average70 °F68%29.93 "Hg
* Reported Jul 17 2:00 PM — Aug 1 1:00 PM, Monthey, Weather by CustomWeather, © 2015

Note: Actual official high and low records may vary slightly from our data, if they occured in-between our weather recording intervals... More about our weather records

Advertising

Monthey weather history for previous 24 hours

 ConditionsComfort  
Time TempWeatherWind HumidityBarometerVisibility
1:00 PM
Sat, Aug 1
67 °FMild.1 mph78%29.96 "HgN/A
12:00 PM65 °FMild.1 mph86%29.97 "HgN/A
11:00 AM63 °FOvercast.3 mph88%29.98 "Hg6 mi
10:00 AM62 °FCool.3 mph93%30.00 "HgN/A
9:00 AM61 °FCool.2 mph95%29.98 "HgN/A
8:00 AM60 °FHeavy rain. Overcast.2 mph96%29.97 "Hg3 mi
7:00 AM60 °FCool.1 mph98%29.98 "HgN/A
4:00 AM63 °FMild.No wind93%29.88 "HgN/A
3:00 AM62 °FCool.1 mph93%29.88 "HgN/A
2:00 AM62 °FMild.1 mph94%29.90 "HgN/A
1:00 AM64 °FMild.3 mph81%29.90 "HgN/A
12:00 AM64 °FMild.2 mph90%29.91 "HgN/A
11:00 PM
Fri, Jul 31
64 °FMild.2 mph92%29.90 "HgN/A
10:00 PM64 °FMild.2 mph90%29.89 "HgN/A
9:00 PM67 °FMild.1 mph74%29.87 "HgN/A
8:00 PM72 °FPartly sunny.1 mph60%29.84 "Hg22 mi
7:00 PM72 °FMild.2 mph57%29.85 "HgN/A
6:00 PM71 °FMild.5 mph56%29.86 "HgN/A
5:00 PM73 °FPartly sunny.8 mph47%29.85 "Hg22 mi
4:00 PM76 °FMild.8 mph46%29.85 "HgN/A
3:00 PM73 °FMild.7 mph51%29.86 "HgN/A
2:00 PM73 °FScattered clouds.10 mph46%29.88 "Hg25 mi
Weather by CustomWeather, © 2015

See weather overviewHow to use our weather pages